Temp
-11 -11 -11 -11 -11 -11 -11 -10 -10 -10 -10 -10 -10 -10 -10 -10 -10 -11 -11 -11 -11 -11 -11 -11 -11 -11 -11 -11 -11 -10 -10 -10 -10 -10 -11 -11 -10 -10 -11 -10 -11 -11 -11 -11 -11 -11 -11
-11 -11 -11 -11 -11 -11 -11 -11 -11 -11 -11 -11 -11 -11 -11 -11 -11 -11 -11 -11 -11 -11 -11 -11 -11 -11 -11 -11 -11 -11 -11 -11 -11 -11 -11 -11 -11 -11 -11 -11 -11 -11 -11 -11 -11 -11 -11
-10 -10 -10 -10 -10 -10 -11 -11 -11 -11 -11 -11 -11 -11 -11 -11 -11 -11 -11 -11 -11 -11 -11 -11 -11 -11 -11 -11 -11 -11 -11 -11 -11 -11 -11 -12 -11 -11 -11 -11 -11 -11 -11 -11 -11 -11 -11
-10 -10 -10 -10 -10 -10 -10 -10 -10 -10 -10 -10 -10 -10 -10 -11 -11 -11 -11 -11 -11 -11 -11 -11 -11 -11 -11 -11 -11 -11 -11 -11 -11 -11 -12 -12 -12 -12 -12 -12 -11 -11 -11 -11 -12 -11 -11
-10 -10 -10 -10 -10 -10 -10 -10 -10 -10 -10 -10 -10 -10 -10 -10 -10 -11 -11 -11 -11 -11 -11 -10 -11 -11 -11 -11 -11 -11 -11 -11 -11 -11 -11 -12 -12 -12 -12 -12 -12 -12 -11 -11 -11 -11 -11
-10 -10 -10 -10 -10 -9 -9 -9 -10 -10 -10 -9 -9 -10 -10 -10 -10 -10 -10 -11 -10 -10 -11 -11 -11 -11 -11 -11 -11 -11 -11 -11 -11 -11 -11 -11 -11 -11 -12 -12 -12 -12 -12 -12 -11 -11 -11
-10 -11 -11 -11 -11 -10 -10 -10 -9 -9 -9 -9 -10 -10 -9 -9 -9 -10 -10 -10 -10 -10 -10 -10 -10 -10 -10 -11 -11 -11 -11 -11 -11 -11 -11 -11 -11 -11 -13 -12 -12 -12 -12 -12 -12 -12 -11
-10 -10 -10 -10 -10 -10 -10 -10 -10 -10 -10 -10 -9 -9 -9 -9 -10 -10 -10 -10 -10 -9 -10 -10 -10 -10 -10 -11 -11 -11 -11 -11 -11 -11 -11 -11 -12 -12 -12 -12 -12 -12 -13 -12 -13 -13 -12
-10 -10 -10 -10 -10 -10 -10 -10 -9 -9 -9 -9 -9 -9 -10 -10 -10 -10 -10 -10 -9 -9 -9 -11 -10 -10 -10 -10 -11 -11 -11 -11 -11 -12 -12 -11 -12 -12 -12 -12 -12 -12 -12 -13 -13 -13 -13
-10 -10 -10 -10 -10 -10 -10 -10 -10 -9 -9 -9 -10 -9 -10 -10 -10 -10 -10 -10 -10 -9 -9 -9 -10 -10 -11 -11 -11 -12 -11 -12 -12 -12 -12 -11 -13 -12 -12 -12 -13 -12 -13 -13 -13 -13 -13
-10 -10 -10 -10 -10 -10 -9 -9 -9 -10 -10 -10 -10 -10 -10 -10 -10 -10 -9 -10 -10 -9 -10 -9 -10 -11 -11 -12 -12 -12 -12 -12 -12 -12 -12 -12 -12 -12 -13 -13 -13 -13 -13 -13 -14 -14 -13
-10 -10 -10 -10 -10 -9 -9 -9 -9 -9 -9 -10 -10 -10 -10 -10 -10 -10 -10 -10 -10 -11 -10 -10 -11 -11 -11 -12 -12 -12 -12 -12 -12 -12 -12 -12 -12 -12 -13 -13 -13 -13 -13 -13 -13 -14 -12
-11 -11 -10 -10 -10 -9 -9 -10 -9 -9 -10 -10 -10 -11 -11 -11 -11 -11 -11 -11 -11 -11 -11 -11 -11 -11 -12 -13 -12 -12 -12 -13 -13 -12 -12 -12 -12 -12 -13 -13 -14 -14 -14 -14 -13 -13 -12
-11 -10 -10 -10 -10 -10 -10 -10 -9 -10 -10 -10 -11 -11 -11 -12 -12 -12 -12 -11 -11 -11 -11 -11 -12 -12 -12 -13 -12 -12 -13 -13 -13 -14 -13 -12 -11 -13 -13 -14 -14 -14 -14 -15 -15 -14 -13
-11 -10 -10 -10 -10 -10 -10 -10 -10 -11 -11 -11 -11 -12 -12 -12 -12 -12 -12 -12 -12 -12 -12 -12 -12 -12 -12 -13 -13 -13 -13 -13 -13 -13 -13 -13 -12 -12 -13 -14 -15 -14 -15 -16 -16 -15 -14
-10 -10 -10 -10 -10 -10 -10 -11 -11 -11 -11 -11 -12 -12 -12 -13 -12 -12 -12 -12 -12 -13 -13 -13 -13 -13 -13 -13 -13 -13 -13 -13 -13 -14 -14 -14 -13 -14 -14 -14 -15 -16 -16 -16 -17 -16 -15
-10 -10 -11 -11 -10 -11 -11 -12 -12 -12 -12 -12 -12 -12 -12 -13 -13 -13 -13 -13 -13 -13 -13 -13 -13 -13 -13 -14 -14 -14 -14 -14 -15 -15 -16 -15 -15 -13 -14 -15 -16 -17 -17 -18 -19 -18 -16
-10 -10 -10 -11 -11 -11 -12 -12 -12 -12 -13 -13 -13 -13 -13 -13 -13 -13 -13 -13 -14 -14 -14 -14 -14 -14 -15 -15 -15 -15 -15 -16 -15 -16 -16 -17 -16 -15 -14 -15 -16 -17 -17 -19 -20 -17 -17
-11 -12 -12 -13 -13 -13 -13 -13 -12 -13 -13 -13 -13 -13 -14 -14 -14 -14 -15 -15 -15 -15 -15 -15 -15 -15 -16 -16 -16 -15 -16 -16 -16 -17 -17 -18 -19 -17 -15 -16 -17 -18 -18 -19 -19 -19 -16
-11 -12 -13 -13 -13 -13 -13 -13 -13 -13 -13 -14 -14 -14 -15 -15 -15 -15 -15 -15 -15 -15 -16 -16 -16 -16 -17 -17 -17 -17 -17 -17 -17 -18 -19 -20 -19 -20 -17 -18 -21 -21 -21 -21 -22 -21 -19
-13 -13 -13 -13 -13 -13 -13 -13 -13 -14 -14 -14 -15 -15 -15 -15 -15 -16 -16 -16 -17 -17 -17 -17 -17 -18 -18 -18 -18 -18 -18 -18 -19 -21 -22 -22 -21 -23 -21 -20 -22 -22 -21 -22 -23 -22 -22
-13 -14 -14 -13 -13 -13 -13 -14 -14 -14 -14 -14 -15 -16 -16 -16 -17 -17 -17 -17 -18 -18 -18 -18 -18 -18 -19 -20 -20 -19 -19 -20 -20 -23 -24 -24 -23 -24 -22 -23 -24 -22 -22 -22 -23 -23 -22
-13 -14 -14 -14 -14 -14 -15 -15 -15 -16 -16 -16 -17 -18 -17 -17 -18 -18 -18 -19 -19 -19 -19 -20 -20 -20 -20 -22 -22 -23 -23 -23 -24 -24 -26 -25 -25 -25 -24 -24 -24 -23 -23 -23 -23 -23 -23
-14 -14 -14 -14 -14 -15 -15 -16 -16 -17 -17 -18 -18 -18 -19 -18 -19 -19 -20 -20 -20 -21 -21 -21 -23 -23 -23 -24 -24 -25 -25 -26 -26 -26 -26 -26 -26 -26 -26 -26 -25 -25 -24 -24 -24 -24 -24
-14 -14 -14 -14 -15 -16 -16 -17 -18 -19 -19 -19 -19 -20 -20 -20 -20 -20 -21 -21 -22 -22 -23 -23 -24 -25 -25 -26 -26 -26 -26 -27 -27 -27 -27 -27 -27 -27 -27 -27 -26 -26 -25 -24 -24 -24 -24
-14 -14 -14 -15 -16 -16 -17 -18 -19 -20 -21 -21 -21 -22 -22 -22 -21 -22 -23 -24 -24 -24 -25 -25 -26 -27 -27 -27 -27 -27 -27 -27 -28 -28 -27 -27 -27 -27 -27 -27 -26 -26 -25 -25 -24 -24 -24
-15 -15 -15 -16 -17 -18 -19 -19 -19 -20 -22 -23 -22 -24 -24 -24 -24 -24 -25 -25 -25 -26 -26 -27 -28 -28 -28 -28 -27 -27 -28 -28 -28 -28 -28 -28 -28 -27 -27 -27 -26 -26 -26 -26 -26 -26 -25
-16 -17 -18 -18 -19 -19 -19 -20 -20 -21 -23 -25 -24 -25 -26 -26 -26 -26 -26 -26 -26 -27 -28 -28 -28 -28 -28 -28 -28 -28 -28 -28 -28 -28 -28 -28 -28 -28 -27 -27 -27 -27 -27 -26 -26 -26 -25
-18 -19 -19 -19 -19 -19 -20 -21 -22 -23 -25 -26 -26 -27 -27 -27 -27 -27 -27 -28 -28 -28 -28 -29 -28 -28 -28 -28 -28 -28 -29 -29 -28 -28 -28 -28 -28 -28 -28 -28 -27 -27 -27 -26 -26 -26 -26
Height
5844 5844 5843 5843 5842 5841 5841 5840 5840 5839 5838 5837 5836 5835 5834 5832 5831 5829 5828 5826 5825 5823 5821 5819 5817 5816 5815 5813 5810 5809 5807 5806 5805 5804 5803 5802 5800 5799 5799 5797 5798 5798 5797 5798 5797 5796 5796
5845 5844 5842 5841 5841 5840 5839 5838 5837 5836 5835 5834 5832 5831 5829 5828 5826 5824 5822 5820 5819 5818 5816 5814 5813 5812 5811 5809 5806 5804 5802 5801 5800 5798 5797 5797 5795 5795 5794 5793 5792 5793 5792 5792 5793 5792 5792
5844 5843 5843 5842 5840 5838 5837 5835 5834 5833 5831 5830 5829 5827 5825 5823 5821 5819 5818 5816 5814 5813 5811 5809 5808 5807 5805 5804 5802 5800 5799 5796 5795 5794 5792 5791 5789 5788 5789 5787 5786 5785 5785 5787 5789 5786 5786
5842 5841 5841 5839 5839 5837 5835 5833 5831 5829 5828 5826 5824 5823 5821 5819 5816 5814 5812 5811 5809 5808 5807 5805 5804 5803 5801 5799 5796 5794 5792 5790 5789 5787 5786 5784 5783 5782 5781 5781 5779 5777 5779 5781 5783 5778 5777
5838 5837 5836 5835 5834 5833 5831 5829 5827 5825 5823 5821 5819 5817 5814 5813 5811 5809 5807 5806 5804 5803 5801 5799 5798 5796 5797 5794 5792 5789 5787 5785 5782 5780 5778 5776 5776 5776 5776 5774 5773 5773 5769 5770 5770 5772 5771
5836 5835 5833 5831 5829 5827 5825 5823 5821 5819 5819 5817 5814 5811 5809 5807 5804 5802 5801 5799 5798 5797 5796 5793 5792 5791 5789 5787 5783 5782 5780 5778 5776 5774 5773 5769 5767 5768 5770 5766 5763 5763 5762 5762 5762 5764 5761
5832 5830 5828 5826 5824 5822 5820 5817 5815 5813 5811 5809 5807 5804 5803 5800 5797 5796 5794 5791 5791 5790 5790 5788 5784 5782 5780 5780 5777 5774 5771 5770 5768 5767 5765 5761 5760 5763 5759 5755 5755 5754 5751 5751 5756 5752 5747
5828 5826 5824 5821 5819 5817 5814 5811 5808 5806 5804 5802 5800 5796 5795 5792 5789 5788 5784 5782 5780 5778 5782 5777 5777 5773 5771 5771 5769 5767 5765 5763 5761 5759 5755 5754 5755 5753 5750 5747 5745 5743 5742 5744 5742 5743 5733
5823 5821 5819 5817 5814 5812 5808 5805 5802 5799 5797 5795 5792 5789 5786 5783 5782 5780 5776 5773 5770 5767 5764 5774 5768 5765 5762 5761 5759 5757 5755 5752 5751 5750 5746 5745 5749 5745 5741 5739 5737 5733 5731 5732 5729 5730 5725
5818 5816 5813 5810 5808 5806 5803 5800 5796 5792 5790 5787 5784 5781 5778 5776 5774 5770 5768 5764 5761 5756 5752 5758 5754 5753 5751 5751 5750 5746 5743 5743 5741 5740 5736 5735 5738 5735 5732 5732 5728 5723 5726 5719 5718 5715 5711
5810 5808 5806 5803 5800 5798 5794 5791 5787 5784 5780 5777 5774 5771 5769 5766 5764 5759 5758 5754 5751 5747 5744 5745 5743 5741 5740 5741 5739 5738 5735 5732 5730 5728 5727 5728 5725 5722 5721 5722 5718 5718 5715 5711 5708 5704 5699
5803 5800 5797 5794 5791 5787 5783 5779 5775 5773 5769 5766 5762 5759 5757 5754 5750 5748 5746 5742 5739 5738 5736 5735 5733 5731 5731 5730 5727 5725 5724 5722 5720 5717 5714 5715 5711 5711 5710 5708 5707 5705 5705 5701 5697 5693 5685
5794 5791 5787 5783 5779 5775 5771 5767 5764 5761 5758 5755 5751 5748 5745 5742 5739 5736 5733 5731 5729 5728 5728 5724 5722 5721 5720 5718 5715 5713 5710 5709 5707 5705 5704 5702 5700 5699 5698 5696 5695 5691 5690 5687 5683 5681 5676
5783 5780 5777 5773 5769 5763 5759 5755 5751 5748 5745 5742 5739 5737 5734 5730 5727 5725 5723 5721 5719 5718 5715 5711 5711 5710 5708 5707 5702 5700 5696 5694 5693 5689 5687 5687 5689 5686 5684 5683 5681 5679 5677 5674 5669 5668 5664
5771 5768 5764 5760 5756 5751 5747 5743 5739 5736 5732 5731 5728 5726 5723 5720 5716 5714 5711 5707 5707 5705 5701 5699 5698 5695 5695 5693 5689 5685 5683 5681 5676 5674 5674 5671 5672 5670 5668 5667 5665 5664 5663 5664 5654 5654 5647
5758 5755 5751 5747 5742 5738 5734 5730 5727 5724 5720 5718 5715 5714 5711 5707 5704 5702 5699 5698 5694 5691 5688 5685 5683 5683 5680 5678 5673 5669 5667 5664 5660 5655 5651 5653 5654 5655 5653 5652 5650 5648 5648 5645 5643 5637 5632
5746 5742 5738 5734 5729 5726 5722 5719 5716 5713 5709 5706 5704 5702 5699 5697 5693 5688 5685 5684 5680 5677 5673 5672 5669 5666 5664 5662 5658 5655 5651 5648 5643 5640 5636 5633 5633 5639 5636 5635 5634 5632 5629 5627 5626 5623 5619
5733 5729 5725 5721 5717 5713 5710 5706 5703 5700 5697 5694 5691 5689 5686 5683 5679 5674 5671 5668 5666 5660 5656 5654 5652 5648 5645 5643 5640 5636 5633 5628 5626 5622 5619 5616 5614 5618 5620 5618 5614 5612 5612 5611 5606 5606 5605
5719 5715 5711 5708 5704 5700 5696 5693 5689 5685 5682 5678 5675 5672 5668 5664 5660 5656 5653 5651 5647 5645 5640 5638 5634 5631 5627 5625 5620 5620 5617 5613 5609 5603 5600 5599 5595 5595 5600 5601 5597 5595 5594 5593 5591 5588 5587
5705 5701 5697 5694 5690 5686 5682 5678 5674 5669 5665 5662 5658 5655 5651 5646 5642 5639 5635 5633 5627 5625 5621 5617 5616 5611 5608 5606 5602 5599 5599 5595 5592 5588 5583 5580 5581 5580 5581 5581 5576 5573 5576 5578 5576 5569 5567
5690 5686 5682 5677 5674 5670 5664 5660 5655 5650 5647 5644 5641 5638 5633 5629 5624 5620 5616 5615 5613 5608 5604 5599 5597 5591 5587 5585 5583 5581 5579 5578 5576 5573 5569 5564 5562 5561 5564 5565 5560 5556 5556 5561 5556 5557 5550
5674 5671 5667 5662 5657 5652 5646 5640 5636 5632 5627 5625 5621 5619 5615 5612 5607 5603 5597 5598 5595 5590 5586 5582 5578 5574 5571 5569 5565 5565 5561 5559 5561 5559 5554 5551 5545 5545 5542 5547 5544 5536 5542 5541 5541 5542 5536
5657 5653 5648 5643 5638 5632 5627 5622 5616 5610 5605 5602 5600 5597 5593 5595 5590 5583 5583 5578 5577 5571 5569 5564 5560 5558 5555 5554 5548 5548 5546 5545 5544 5543 5543 5537 5535 5532 5525 5533 5524 5521 5527 5524 5523 5524 5519
5638 5633 5628 5623 5618 5611 5605 5600 5596 5590 5585 5583 5582 5576 5573 5574 5570 5565 5563 5559 5557 5555 5550 5549 5544 5539 5541 5535 5534 5534 5535 5533 5532 5533 5528 5526 5524 5520 5514 5516 5512 5513 5510 5508 5506 5506 5506
5619 5612 5605 5601 5595 5591 5585 5579 5574 5569 5564 5562 5560 5556 5552 5552 5553 5550 5544 5541 5539 5535 5533 5530 5531 5527 5525 5523 5521 5521 5526 5524 5523 5521 5520 5517 5514 5511 5507 5505 5504 5503 5500 5498 5496 5496 5493
5595 5589 5584 5577 5572 5566 5562 5556 5553 5548 5542 5538 5540 5535 5531 5530 5534 5533 5528 5525 5523 5520 5520 5518 5517 5516 5515 5512 5511 5510 5512 5513 5512 5511 5510 5507 5505 5502 5501 5495 5493 5495 5491 5488 5485 5484 5482
5570 5563 5557 5551 5547 5540 5537 5535 5532 5527 5523 5517 5522 5517 5512 5512 5516 5515 5513 5511 5509 5507 5505 5506 5507 5507 5506 5504 5504 5504 5504 5503 5501 5501 5499 5497 5495 5494 5491 5487 5486 5485 5483 5480 5477 5477 5472
5541 5535 5530 5526 5522 5518 5514 5511 5509 5506 5503 5497 5503 5500 5497 5496 5499 5501 5500 5498 5496 5495 5496 5498 5498 5498 5498 5497 5497 5496 5495 5495 5493 5492 5490 5488 5486 5485 5483 5480 5478 5477 5476 5474 5471 5467 5465
5512 5507 5502 5499 5495 5491 5488 5486 5485 5485 5484 5481 5484 5485 5485 5482 5485 5488 5487 5487 5485 5485 5487 5490 5491 5489 5488 5489 5489 5487 5487 5486 5485 5483 5482 5480 5478 5476 5475 5471 5469 5467 5465 5463 5462 5460 5458
Wind_Speed
16 16 15 15 15 14 14 15 16 17 18 19 20 22 23 24 25 26 26 27 27 26 27 27 25 24 22 22 23 23 23 24 24 24 24 24 23 22 26 29 28 24 23 22 20 18 18
20 19 20 21 21 22 21 20 20 19 19 20 21 22 24 25 25 26 26 27 27 27 27 27 27 29 29 29 28 27 27 26 27 26 25 24 25 24 24 29 30 29 28 25 25 24 23
21 23 23 23 23 24 25 25 25 26 26 26 26 26 26 26 27 27 27 27 27 28 29 29 28 26 24 26 28 30 30 29 29 29 28 26 26 26 24 25 29 32 34 30 26 28 29
20 21 23 26 27 28 28 28 28 27 27 28 29 30 32 33 34 34 33 32 31 31 32 32 31 29 28 26 27 28 28 29 30 30 32 32 30 30 28 27 27 31 36 34 31 34 35
28 28 30 30 30 32 32 31 31 32 32 32 31 32 32 33 34 35 35 36 34 34 34 34 33 33 31 30 30 30 29 29 30 31 30 32 36 35 32 32 33 30 33 36 40 39 40
28 29 30 32 35 36 37 38 39 38 36 36 37 37 36 37 37 37 38 38 39 39 38 36 34 33 33 30 32 32 32 32 31 33 32 32 35 37 35 37 39 38 39 38 38 40 44
31 32 34 35 36 37 40 41 42 42 41 42 43 44 45 44 44 43 43 43 43 42 40 41 40 38 36 32 32 31 32 33 33 32 36 39 38 31 35 41 43 44 45 45 40 41 48
32 34 35 37 38 40 42 43 43 43 43 42 44 46 46 47 48 48 47 46 45 46 41 43 39 40 40 37 35 34 36 35 34 34 36 38 32 30 36 38 40 43 46 45 46 46 55
32 34 37 38 41 42 42 43 45 45 45 45 45 46 48 48 47 48 49 50 49 48 46 38 40 40 41 39 31 32 35 36 37 36 37 38 34 37 38 37 37 40 42 41 46 47 53
32 34 36 39 41 44 46 47 46 47 47 46 46 48 50 50 49 48 45 47 48 48 48 42 42 36 34 35 32 33 36 36 38 38 41 42 35 39 42 40 42 43 37 42 43 47 52
34 36 39 42 44 47 49 49 50 49 50 50 51 51 53 51 49 48 45 46 45 45 47 42 42 41 38 37 37 37 36 37 39 38 41 40 40 41 41 38 43 46 43 45 46 48 52
38 41 44 46 49 53 55 50 46 46 48 49 50 48 47 47 47 44 45 45 46 46 46 46 44 43 43 40 40 40 41 41 40 40 43 40 44 44 41 40 41 44 45 47 49 50 55
43 45 49 52 56 59 56 47 44 44 44 45 48 48 46 45 44 44 44 45 47 45 43 45 44 44 44 42 43 44 45 45 46 46 46 47 47 47 46 45 42 45 46 49 56 56 55
49 50 54 56 60 58 52 48 48 48 48 47 46 48 47 46 44 46 47 46 46 43 43 45 46 46 46 46 49 48 50 50 50 51 52 52 49 50 51 50 51 51 50 52 54 57 60
52 54 58 61 55 54 54 55 53 50 50 49 47 43 42 41 40 41 43 45 44 45 46 47 48 49 48 48 52 54 55 54 55 55 55 56 55 55 55 54 53 53 53 48 52 54 61
56 59 61 56 54 54 55 53 55 52 51 48 45 42 41 40 42 43 45 44 46 48 50 51 52 52 52 53 56 58 58 61 62 61 62 60 59 56 56 56 56 56 56 54 53 58 62
59 59 58 56 56 55 54 53 52 47 44 44 46 44 44 45 44 45 46 46 48 50 53 55 56 57 58 59 61 62 63 63 63 63 64 65 65 59 56 56 55 57 58 58 57 59 63
55 57 58 55 56 55 53 51 47 45 44 45 44 45 46 45 44 46 48 50 50 52 55 57 58 60 61 63 65 66 65 63 63 63 64 61 62 59 59 60 60 58 58 58 58 62 61
54 53 54 53 52 53 53 54 54 53 52 51 52 50 47 49 52 51 51 52 54 55 59 61 62 64 66 66 66 65 63 62 62 62 62 61 60 61 59 58 58 57 56 56 59 63 69
57 57 55 54 55 57 58 59 59 58 58 56 55 53 52 54 54 54 56 56 57 59 60 62 62 62 62 61 62 63 61 61 60 59 60 59 58 56 60 58 55 53 51 48 45 54 63
59 59 61 63 63 65 66 67 64 61 61 60 59 58 58 59 59 59 60 60 59 60 61 60 60 58 59 60 60 59 58 57 55 53 51 53 57 54 53 54 55 59 58 54 55 57 62
64 66 69 70 68 67 67 65 64 64 64 64 63 62 63 64 62 62 62 60 60 58 59 58 57 57 57 56 56 57 56 55 52 46 43 45 51 48 52 46 47 55 55 57 55 52 57
69 70 70 71 72 70 69 69 68 68 69 69 67 67 68 66 63 63 59 58 56 56 55 55 56 56 56 52 52 49 48 47 46 43 37 41 40 42 51 41 44 51 43 47 54 53 58
73 74 74 75 75 75 75 74 74 74 74 73 71 70 69 65 62 58 55 54 53 53 54 51 51 52 49 49 49 47 42 40 39 36 36 37 35 38 42 36 38 37 36 33 38 41 47
77 77 78 79 80 80 81 80 78 77 76 75 72 70 66 65 63 57 54 56 54 52 50 49 46 45 44 43 44 44 39 37 33 32 31 31 31 31 32 36 36 34 37 35 37 37 36
80 83 84 85 85 87 87 86 84 79 74 71 68 60 60 61 59 53 52 52 52 48 46 44 41 36 34 37 37 41 35 30 27 27 27 26 27 32 33 34 35 32 30 33 33 31 37
90 91 92 91 90 90 89 85 79 74 68 64 61 57 57 57 53 49 49 49 46 42 41 34 31 28 27 28 28 28 28 28 29 28 27 28 30 29 26 23 27 23 17 19 21 22 24
96 97 96 95 92 88 85 82 78 69 63 62 56 56 55 55 51 47 44 43 43 38 34 29 29 31 31 29 25 26 28 29 29 29 30 32 32 31 29 25 24 25 24 25 21 20 20
99 96 95 95 94 92 88 78 70 58 57 59 56 52 49 47 47 41 39 36 37 33 28 19 26 31 28 27 26 27 29 30 31 32 31 32 28 30 31 32 31 31 29 29 29 26 25
Wind_Direction
342 341 344 346 345 340 330 317 306 301 299 300 301 301 300 300 302 304 304 302 302 301 301 300 298 295 293 291 288 287 283 282 279 278 281 282 284 284 267 262 263 261 266 272 273 272 276
360 353 344 341 337 336 332 327 323 320 316 309 301 297 297 297 298 298 298 300 304 305 305 303 303 301 300 295 291 290 286 283 278 275 275 279 281 285 282 269 263 261 261 262 270 275 269
351 351 351 352 350 342 337 332 327 321 316 314 313 311 309 307 305 306 307 308 309 310 310 311 311 311 309 304 297 292 290 287 286 283 279 276 280 281 283 278 271 265 263 261 264 269 269
348 346 342 340 339 335 334 332 330 327 323 319 314 312 309 307 307 306 305 304 304 305 307 307 306 306 307 308 308 304 301 299 294 289 284 281 277 275 277 278 276 271 268 266 264 262 261
338 337 333 331 328 326 325 322 320 318 316 314 313 311 310 310 310 310 307 305 304 306 306 305 307 307 307 307 303 300 302 302 301 299 292 284 281 278 276 278 277 277 273 264 261 261 262
330 332 329 325 323 321 319 319 317 314 309 307 305 303 303 302 303 304 306 307 304 305 307 307 306 302 301 304 299 299 299 297 297 297 297 293 285 281 281 277 272 271 274 275 276 271 264
332 333 332 329 327 322 319 316 312 310 308 306 306 304 303 302 300 299 299 298 297 297 301 304 303 303 302 306 301 298 293 292 292 292 292 291 293 302 280 275 276 276 274 273 274 277 273
327 327 327 326 323 321 320 317 313 309 307 306 305 303 301 299 297 297 296 296 294 294 296 295 294 293 296 299 300 296 295 294 294 291 290 290 295 292 292 290 284 280 276 276 275 276 275
320 322 323 324 322 319 315 313 309 304 302 301 298 296 298 297 295 294 295 295 294 291 291 295 293 292 292 291 294 295 294 293 293 295 291 290 295 291 291 290 293 288 284 282 277 272 271
312 314 314 315 317 316 315 311 304 300 299 297 295 295 295 296 296 295 297 295 292 290 290 295 294 296 293 293 291 289 290 290 289 289 289 291 290 289 287 290 290 285 289 283 282 281 282
306 308 309 310 312 313 313 312 308 303 300 298 294 294 295 295 296 294 287 289 290 287 288 292 295 292 294 295 293 292 287 286 286 285 286 291 289 284 284 285 283 290 288 284 282 279 278
303 305 308 309 311 312 313 311 307 303 302 303 299 295 294 295 292 290 287 285 284 286 295 291 292 294 294 297 294 292 290 286 285 285 286 284 283 284 284 281 281 283 283 282 279 277 277
304 306 308 309 311 312 311 308 308 307 305 303 299 298 296 293 290 287 284 286 285 289 293 288 289 290 291 291 289 288 288 287 284 282 281 281 282 282 280 279 274 273 273 276 279 281 286
304 305 306 308 309 310 308 305 306 306 303 302 299 297 296 292 289 291 293 292 292 293 290 289 289 288 288 288 285 286 285 285 285 282 283 283 280 277 275 272 272 272 270 269 276 280 282
302 304 305 307 307 307 309 308 307 305 303 302 299 297 292 292 292 294 294 293 294 291 287 286 287 289 288 284 283 285 288 287 284 281 279 276 277 278 277 274 272 270 267 268 266 268 272
304 305 306 306 308 309 307 306 304 301 300 296 291 289 288 289 291 293 293 293 291 286 285 286 286 285 285 284 284 285 285 285 286 284 282 279 278 273 270 273 273 274 273 269 266 269 270
306 307 306 309 308 307 305 302 299 298 296 294 292 289 290 293 293 292 292 291 288 286 286 285 285 285 284 283 282 282 282 282 280 280 280 280 278 278 274 271 268 268 267 267 268 267 268
304 305 307 308 306 305 302 298 297 298 299 298 297 296 295 293 291 290 290 290 288 286 284 282 281 280 279 279 279 279 279 278 279 278 277 274 273 273 273 272 271 268 265 264 258 263 265
302 305 305 304 303 302 299 298 297 297 297 298 296 297 296 295 293 292 290 288 288 285 282 282 280 280 280 280 280 279 279 279 278 276 276 277 276 277 276 273 271 271 270 268 268 266 265
303 302 301 301 301 301 300 300 300 301 301 300 299 299 296 294 293 292 290 289 287 285 283 282 282 282 282 281 279 279 279 278 277 278 276 274 274 275 275 274 275 271 268 266 264 266 270
301 301 300 300 299 299 299 299 299 299 299 298 297 295 292 292 290 289 287 287 286 285 284 284 284 283 282 280 278 278 278 277 276 276 277 276 275 275 272 273 272 273 272 267 261 259 262
299 299 299 300 300 300 298 297 295 294 293 293 292 291 290 291 289 289 289 290 287 286 286 285 284 281 279 279 279 278 277 277 277 273 272 275 279 281 280 282 281 274 270 268 269 267 266
299 299 298 298 297 296 294 292 291 291 291 292 292 292 291 291 292 292 292 290 289 286 286 284 283 282 281 280 277 276 276 278 280 280 281 279 285 285 280 282 278 274 280 273 267 266 268
297 296 296 295 293 292 291 291 291 292 292 293 293 293 293 294 293 291 287 284 283 281 281 279 276 276 278 274 274 275 276 277 278 280 283 289 288 284 286 285 275 284 282 280 283 276 271
294 292 291 290 289 289 290 290 291 292 293 295 295 294 291 292 292 287 281 281 280 279 278 276 274 274 272 271 273 275 277 280 278 279 283 281 281 290 285 284 279 287 283 285 279 282 284
288 287 286 285 286 287 288 290 293 294 292 290 291 285 281 284 286 281 277 279 280 279 277 276 273 271 273 273 272 273 284 284 281 282 282 279 280 287 288 293 281 293 285 280 278 283 287
286 284 283 284 286 288 289 291 291 289 286 281 284 277 273 275 277 276 276 276 277 275 274 269 260 264 277 275 276 278 279 278 281 282 286 284 278 286 286 283 284 285 296 303 298 295 298
285 285 287 288 288 289 289 288 287 284 277 271 272 269 269 271 272 273 275 276 275 273 271 268 261 272 278 270 277 277 276 276 279 284 288 290 283 285 282 287 288 288 288 287 294 284 291
287 288 288 289 288 286 286 288 287 278 268 267 268 268 267 268 272 274 276 275 273 272 270 256 267 275 263 261 278 278 275 275 279 283 284 288 285 281 282 284 284 284 283 285 288 292 290